When you browse on this site, cookies collect data to enhance your experience and personalize the content and advertising you see.
Visit our Privacy Policy to learn more. By continuing to use the site, you agree to this use of cookies and data.
  • In Slovakia
  • List of Countries
  • For 7 days
  • Water Temperature
  • Satellite Maps
  • Weather Map
  • Weather Widgets
  • user-avatar
    Login

    Hourly Weather Elbasan

    Today, 24 February, Sunday

    Time Temperature Precipitation Wind Pressure Humidity
    00:00 -4°C° 0 mm 7 mps 741 mmHg 52%
    01:00 -4°C° 0 mm 6 mps 741 mmHg 52%
    02:00 -4°C° 0 mm 6 mps 741 mmHg 53%
    03:00 -4°C° 0 mm 6 mps 741 mmHg 53%
    04:00 -4°C° 0 mm 6 mps 742 mmHg 53%
    05:00 -4°C° 0 mm 6 mps 742 mmHg 54%
    06:00 -4°C° 0 mm 5 mps 742 mmHg 54%
    07:00 -4°C° 0 mm 5 mps 742 mmHg 54%
    08:00 -1°C° 0 mm 5 mps 742 mmHg 50%
    09:00 0°C° 0 mm 5 mps 742 mmHg 47%
    10:00 +2°C° 0 mm 6 mps 742 mmHg 43%
    11:00 +3°C° 0 mm 5 mps 742 mmHg 42%
    12:00 +5°C° 0 mm 5 mps 742 mmHg 41%
    13:00 +6°C° 0 mm 5 mps 742 mmHg 40%
    14:00 +5°C° 0 mm 5 mps 742 mmHg 41%
    15:00 +5°C° 0 mm 5 mps 742 mmHg 42%
    16:00 +5°C° 0 mm 5 mps 742 mmHg 43%
    17:00 +3°C° 0 mm 4 mps 742 mmHg 46%
    18:00 +1°C° 0 mm 4 mps 742 mmHg 49%
    19:00 0°C° 0 mm 4 mps 743 mmHg 52%
    20:00 0°C° 0 mm 4 mps 743 mmHg 51%
    21:00 -1°C° 0 mm 4 mps 743 mmHg 51%
    22:00 -1°C° 0 mm 4 mps 743 mmHg 51%
    23:00 -1°C° 0 mm 4 mps 743 mmHg 50%

    Tomorrow, 25 February, Monday

    Time Temperature Precipitation Wind Pressure Humidity
    00:00 -2°C° 0 mm 4 mps 744 mmHg 50%
    01:00 -2°C° 0 mm 4 mps 744 mmHg 49%
    02:00 -2°C° 0 mm 4 mps 743 mmHg 49%
    03:00 -2°C° 0 mm 4 mps 743 mmHg 49%
    04:00 -1°C° 0 mm 3 mps 743 mmHg 49%
    05:00 -2°C° 0 mm 4 mps 743 mmHg 48%
    06:00 -2°C° 0 mm 4 mps 743 mmHg 47%
    07:00 -2°C° 0 mm 4 mps 743 mmHg 45%
    08:00 -1°C° 0 mm 5 mps 743 mmHg 40%
    09:00 +1°C° 0 mm 5 mps 743 mmHg 35%
    10:00 +2°C° 0 mm 6 mps 742 mmHg 30%
    11:00 +3°C° 0 mm 6 mps 742 mmHg 30%
    12:00 +4°C° 0 mm 6 mps 742 mmHg 30%
    13:00 +5°C° 0 mm 6 mps 742 mmHg 30%
    14:00 +6°C° 0 mm 5 mps 742 mmHg 33%
    15:00 +6°C° 0 mm 5 mps 742 mmHg 35%
    16:00 +6°C° 0 mm 4 mps 742 mmHg 38%
    17:00 +5°C° 0 mm 4 mps 742 mmHg 42%
    18:00 +3°C° 0 mm 4 mps 743 mmHg 46%
    19:00 +2°C° 0 mm 3 mps 743 mmHg 50%
    20:00 +2°C° 0 mm 3 mps 743 mmHg 51%
    21:00 +1°C° 0 mm 3 mps 743 mmHg 51%
    22:00 +1°C° 0 mm 3 mps 743 mmHg 52%
    23:00 +1°C° 0 mm 3 mps 743 mmHg 53%

    Day after tomorrow, 26 February, Tuesday

    Time Temperature Precipitation Wind Pressure Humidity
    00:00 +1°C° 0 mm 3 mps 743 mmHg 53%
    01:00 +1°C° 0 mm 3 mps 743 mmHg 54%
    02:00 +1°C° 0 mm 3 mps 742 mmHg 55%
    03:00 +1°C° 0 mm 3 mps 742 mmHg 56%
    04:00 +2°C° 0 mm 2 mps 742 mmHg 57%
    05:00 +3°C° 0 mm 2 mps 741 mmHg 56%
    06:00 +3°C° 0 mm 2 mps 741 mmHg 55%
    07:00 +3°C° 0 mm 2 mps 741 mmHg 54%
    08:00 +6°C° 0 mm 2 mps 741 mmHg 48%
    09:00 +8°C° 0 mm 2 mps 741 mmHg 41%
    10:00 +12°C° 0 mm 1 mps 741 mmHg 34%
    11:00 +13°C° 0 mm 1 mps 741 mmHg 33%
    12:00 +14°C° 0 mm 1 mps 740 mmHg 31%
    13:00 +15°C° 0 mm 1 mps 740 mmHg 30%
    14:00 +14°C° 0 mm 2 mps 739 mmHg 34%
    15:00 +14°C° 0 mm 2 mps 739 mmHg 38%
    16:00 +13°C° 0 mm 2 mps 739 mmHg 41%
    17:00 +12°C° 0 mm 1 mps 739 mmHg 48%
    18:00 +10°C° 0 mm 1 mps 739 mmHg 55%
    19:00 +8°C° 0 mm 1 mps 738 mmHg 61%
    20:00 +8°C° 0 mm 1 mps 738 mmHg 61%
    21:00 +8°C° 0 mm 1 mps 738 mmHg 60%
    22:00 +8°C° 0 mm 1 mps 738 mmHg 60%
    23:00 +7°C° 0 mm 1 mps 737 mmHg 60%

    27 February, Wednesday

    Time Temperature Precipitation Wind Pressure Humidity
    00:00 +7°C° 0 mm 1 mps 737 mmHg 59%
    01:00 +6°C° 0 mm 1 mps 736 mmHg 59%
    02:00 +6°C° 0 mm 1 mps 736 mmHg 58%
    03:00 +5°C° 0 mm 2 mps 736 mmHg 57%
    04:00 +5°C° 0 mm 2 mps 736 mmHg 56%
    05:00 +5°C° 0 mm 2 mps 736 mmHg 58%
    06:00 +5°C° 0 mm 2 mps 736 mmHg 59%
    07:00 +5°C° 0 mm 2 mps 736 mmHg 61%
    08:00 +7°C° 0 mm 2 mps 736 mmHg 53%
    09:00 +9°C° 0 mm 2 mps 737 mmHg 46%
    10:00 +12°C° 0 mm 2 mps 737 mmHg 39%
    11:00 +13°C° 0 mm 2 mps 737 mmHg 36%
    12:00 +14°C° 0 mm 2 mps 737 mmHg 34%
    13:00 +14°C° 0 mm 2 mps 737 mmHg 31%
    14:00 +14°C° 0 mm 2 mps 737 mmHg 33%
    15:00 +13°C° 0 mm 3 mps 737 mmHg 34%
    16:00 +12°C° 0 mm 3 mps 737 mmHg 36%
    17:00 +12°C° 0 mm 2 mps 738 mmHg 42%
    18:00 +9°C° 0 mm 2 mps 738 mmHg 48%
    19:00 +7°C° 0 mm 2 mps 739 mmHg 54%
    20:00 +7°C° 0 mm 2 mps 739 mmHg 56%
    21:00 +6°C° 0 mm 2 mps 739 mmHg 59%
    22:00 +6°C° 0 mm 2 mps 740 mmHg 61%
    23:00 +4°C° 0 mm 3 mps 740 mmHg 63%

    28 February, Thursday

    Time Temperature Precipitation Wind Pressure Humidity
    00:00 +4°C° 0 mm 3 mps 740 mmHg 65%
    01:00 +4°C° 0 mm 3 mps 740 mmHg 67%
    02:00 +4°C° 0 mm 2 mps 740 mmHg 67%
    03:00 +4°C° 0 mm 2 mps 740 mmHg 68%
    04:00 +4°C° 0 mm 2 mps 740 mmHg 68%
    05:00 +4°C° 0 mm 2 mps 740 mmHg 68%
    06:00 +4°C° 0 mm 2 mps 740 mmHg 67%
    07:00 +4°C° 0 mm 2 mps 740 mmHg 66%
    08:00 +8°C° 0 mm 1 mps 740 mmHg 57%
    09:00 +10°C° 0 mm 1 mps 740 mmHg 48%
    10:00 +11°C° 0 mm 0 mps 740 mmHg 39%
    11:00 +13°C° 0 mm 1 mps 740 mmHg 39%
    12:00 +13°C° 0 mm 2 mps 740 mmHg 38%
    13:00 +14°C° 0 mm 2 mps 739 mmHg 37%
    14:00 +14°C° 0 mm 2 mps 739 mmHg 39%
    15:00 +13°C° 0 mm 2 mps 739 mmHg 42%
    16:00 +13°C° 0 mm 2 mps 738 mmHg 45%
    17:00 +12°C° 0 mm 1 mps 738 mmHg 51%
    18:00 +10°C° 0 mm 1 mps 739 mmHg 58%
    19:00 +7°C° 0 mm 0 mps 739 mmHg 64%
    20:00 +7°C° 0 mm 0 mps 739 mmHg 65%
    21:00 +7°C° 0 mm 0 mps 739 mmHg 65%
    22:00 +6°C° 0 mm 0 mps 739 mmHg 66%
    23:00 +6°C° 0 mm 0 mps 739 mmHg 66%

    1 March, Friday

    Time Temperature Precipitation Wind Pressure Humidity
    00:00 +6°C° 0 mm 0 mps 738 mmHg 65%
    01:00 +7°C° 0 mm 1 mps 738 mmHg 65%
    02:00 +6°C° 0 mm 1 mps 738 mmHg 64%
    03:00 +6°C° 0 mm 1 mps 737 mmHg 62%
    04:00 +6°C° 0 mm 1 mps 737 mmHg 61%
    05:00 +6°C° 0 mm 1 mps 737 mmHg 59%
    06:00 +7°C° 0 mm 1 mps 737 mmHg 57%
    07:00 +7°C° 0 mm 1 mps 737 mmHg 56%
    08:00 +9°C° 0 mm 1 mps 737 mmHg 51%
    09:00 +11°C° 0 mm 1 mps 737 mmHg 45%
    10:00 +13°C° 0 mm 1 mps 737 mmHg 40%
    11:00 +14°C° 0 mm 1 mps 736 mmHg 40%
    12:00 +15°C° 0 mm 2 mps 736 mmHg 40%
    13:00 +16°C° 0 mm 2 mps 735 mmHg 40%
    14:00 +15°C° 0 mm 2 mps 735 mmHg 43%
    15:00 +15°C° 0 mm 2 mps 735 mmHg 46%
    16:00 +15°C° 0 mm 2 mps 734 mmHg 49%
    17:00 +13°C° 0 mm 1 mps 734 mmHg 56%
    18:00 +11°C° 0 mm 1 mps 734 mmHg 64%
    19:00 +9°C° 0 mm 0 mps 734 mmHg 72%
    20:00 +8°C° 0 mm 0 mps 734 mmHg 72%
    21:00 +8°C° 0 mm 0 mps 734 mmHg 73%
    22:00 +8°C° 0 mm 0 mps 735 mmHg 73%
    23:00 +9°C° 0 mm 1 mps 734 mmHg 73%
    Show more